FW2882 Weather Reports


time (UTC)temp
F
wind
direction
speed
knots
gust
knots
rain 1hr
in
rain 24hr
in
rain mn
in
humidity
%
barometer
mb
20260509112548 51 199 0.9 0.9 0.00 0.00 0.00 93 1004.1
20260509112451 51 164 0.9 4.3 0.00 0.00 0.00 93 1004.2
20260509112047 51 207 0.0 0.0 0.00 0.00 0.00 93 1004.1
20260509111952 51 173 0.9 3.5 0.00 0.00 0.00 93 1004.1
20260509111451 50 191 0.0 3.5 0.00 0.00 0.00 93 1004.2
20260509111047 51 249 0.9 0.9 0.00 0.00 0.00 93 1004.1
20260509110955 50 239 0.9 4.3 0.00 0.00 0.00 93 1004.3
20260509110547 51 209 0.9 0.9 0.00 0.00 0.00 93 1004.1
20260509110450 50 207 0.0 4.3 0.00 0.00 0.00 93 1004.3
20260509105952 50 271 0.0 4.3 0.00 0.00 0.00 93 1004.3
20260509105450 50 172 1.7 5.2 0.00 0.00 0.00 93 1004.3
20260509105047 51 189 0.9 0.9 0.00 0.00 0.00 93 1004.1
20260509104953 50 157 0.0 5.2 0.00 0.00 0.00 93 1004.2
20260509104450 50 222 0.9 5.2 0.00 0.00 0.00 93 1004.4
20260509103953 50 205 2.6 3.5 0.00 0.00 0.00 93 1004.3
20260509103451 50 192 0.9 2.6 0.00 0.00 0.00 93 1004.5
20260509102952 50 229 0.0 3.5 0.00 0.00 0.00 93 1004.5
20260509102719 51 213 0.9 0.9 0.00 0.00 0.00 93 1004.1
20260509102451 50 191 1.7 3.5 0.00 0.00 0.00 93 1004.4
20260509102219 51 252 0.9 0.9 0.00 0.00 0.00 93 1004.4
20260509101952 50 188 1.7 3.5 0.00 0.00 0.00 93 1004.5
20260509101719 51 197 0.9 0.9 0.00 0.00 0.00 93 1004.4
20260509101451 50 195 2.6 3.5 0.00 0.00 0.00 93 1004.6
20260509101219 51 205 0.9 0.9 0.00 0.00 0.00 93 1004.4
20260509100952 50 195 0.0 3.5 0.00 0.00 0.00 93 1004.6
20260509100451 50 232 0.0 3.5 0.00 0.00 0.00 93 1004.7
20260509100219 51 259 0.9 0.9 0.00 0.00 0.00 93 1004.4
20260509095954 50 229 0.9 4.3 0.00 0.00 0.00 93 1004.7
20260509095719 51 230 0.9 0.9 0.00 0.00 0.00 93 1004.4
20260509095451 50 191 0.9 2.6 0.00 0.00 0.00 92 1004.7
20260509094951 50 223 0.9 5.2 0.00 0.00 0.00 93 1004.8
20260509094719 51 213 0.9 0.9 0.00 0.00 0.00 93 1004.7
20260509094450 50 269 1.7 5.2 0.00 0.00 0.00 93 1004.8
20260509093951 50 190 1.7 3.5 0.00 0.00 0.00 93 1004.8
20260509093719 50 225 0.9 0.9 0.00 0.00 0.00 93 1004.7
20260509093451 50 248 0.9 3.5 0.00 0.00 0.00 92 1004.8
20260509092951 50 257 0.9 4.3 0.00 0.00 0.00 92 1004.9
20260509092451 50 207 0.9 4.3 0.00 0.00 0.00 92 1004.9
20260509092219 50 217 0.0 0.0 0.00 0.00 0.00 92 1004.7
20260509091952 50 215 0.0 2.6 0.00 0.00 0.00 92 1004.9
20260509091451 50 292 0.0 2.6 0.00 0.00 0.00 92 1005.0
20260509090450 49 251 0.9 2.6 0.00 0.00 0.00 92 1005.0
20260509090219 50 167 0.9 0.9 0.00 0.00 0.00 92 1004.7
20260509085954 49 195 0.0 2.6 0.00 0.00 0.00 92 1004.9
20260509085719 50 193 0.0 0.0 0.00 0.00 0.00 92 1004.7
20260509085451 49 182 0.0 2.6 0.00 0.00 0.00 92 1004.9
20260509084720 50 171 0.0 0.0 0.00 0.00 0.00 92 1004.7
20260509084450 49 159 0.0 2.6 0.00 0.00 0.00 92 1004.8
20260509084220 50 151 0.0 0.0 0.00 0.00 0.00 92 1004.7
20260509083451 49 197 0.0 2.6 0.00 0.00 0.00 91 1004.9
20260509083219 50 196 0.0 0.0 0.00 0.00 0.00 91 1004.7
20260509082451 50 193 0.0 1.7 0.00 0.00 0.00 91 1004.9
20260509082219 50 193 0.0 0.0 0.00 0.00 0.00 91 1004.7
20260509081719 50 198 0.0 0.0 0.00 0.00 0.00 91 1004.7
20260509081451 50 200 0.0 1.7 0.00 0.00 0.00 91 1004.9
20260509080951 50 198 0.0 1.7 0.00 0.00 0.00 91 1005.0
20260509080719 50 200 0.0 0.0 0.00 0.00 0.00 91 1004.7
20260509080451 50 179 0.0 0.9 0.00 0.00 0.00 91 1005.1
20260509080219 51 179 0.0 0.0 0.00 0.00 0.00 91 1005.1
20260509075954 50 159 0.0 0.9 0.00 0.00 0.00 91 1005.2
20260509075719 51 159 0.0 0.0 0.00 0.00 0.00 91 1005.1
20260509075450 50 159 0.0 0.9 0.00 0.00 0.00 90 1005.1
20260509074951 50 159 0.0 0.9 0.00 0.00 0.00 90 1005.1
20260509074719 51 158 0.0 0.0 0.00 0.00 0.00 90 1005.1
20260509074450 50 158 0.0 0.9 0.00 0.00 0.00 90 1005.1
20260509074219 51 156 0.0 0.0 0.00 0.00 0.00 90 1005.1
20260509072951 51 154 0.0 1.7 0.00 0.00 0.00 90 1005.0
20260509072719 51 153 0.0 0.0 0.00 0.00 0.00 90 1004.7
20260509072450 51 153 0.0 1.7 0.00 0.00 0.00 90 1004.9
20260509072220 51 147 0.0 0.0 0.00 0.00 0.00 90 1004.7
20260509071951 51 146 0.0 1.7 0.00 0.00 0.00 90 1005.0
20260509071220 52 166 0.0 0.0 0.00 0.00 0.00 90 1005.1
20260509070451 51 166 0.0 0.9 0.00 0.00 0.00 90 1005.3
20260509070220 52 208 0.0 0.0 0.00 0.00 0.00 90 1005.1
20260509065219 52 210 0.0 0.0 0.00 0.00 0.00 90 1005.4
20260509064951 52 205 0.0 1.7 0.00 0.00 0.00 89 1005.5
20260509064720 52 205 0.0 0.0 0.00 0.00 0.00 89 1005.4
20260509064451 52 201 1.7 1.7 0.00 0.00 0.00 89 1005.6
20260509063951 52 190 0.0 0.0 0.00 0.00 0.00 89 1005.7
20260509063720 53 189 0.0 0.0 0.00 0.00 0.00 89 1005.4
20260509063450 52 189 0.0 0.9 0.00 0.00 0.00 89 1005.7
20260509062720 53 187 0.0 0.0 0.00 0.00 0.00 89 1005.4
20260509062450 52 178 1.7 1.7 0.00 0.00 0.00 89 1005.7
20260509062219 53 209 0.0 0.0 0.00 0.00 0.00 89 1005.4
20260509061951 52 205 0.0 1.7 0.00 0.00 0.00 89 1005.7
20260509061449 53 221 0.0 2.6 0.00 0.00 0.00 89 1005.7
20260509061219 53 221 0.0 0.0 0.00 0.00 0.00 89 1005.8
20260509060956 53 231 0.9 2.6 0.00 0.00 0.00 89 1005.7
20260509060449 53 206 0.0 2.6 0.00 0.00 0.00 89 1005.8
20260509060219 53 189 0.0 0.0 0.00 0.00 0.00 88 1005.8
20260509055453 53 225 0.0 2.6 0.00 0.00 0.00 88 1005.8
20260509055220 54 226 0.9 0.9 0.00 0.00 0.00 88 1005.8
20260509054956 53 202 0.0 2.6 0.00 0.00 0.00 88 1005.9
20260509054219 54 223 0.9 0.9 0.00 0.00 0.00 88 1005.8
20260509053955 53 199 0.9 3.5 0.00 0.00 0.00 88 1005.9
20260509053719 54 238 0.9 0.9 0.00 0.00 0.00 88 1005.8
20260509053453 54 227 0.0 3.5 0.00 0.00 0.00 88 1005.9
20260509053219 54 236 0.9 0.9 0.00 0.00 0.00 88 1005.8
20260509052455 54 252 0.9 3.5 0.00 0.00 0.00 87 1005.9
20260509052219 54 257 0.9 0.9 0.00 0.00 0.00 87 1005.8
20260509051454 54 249 0.0 5.2 0.00 0.00 0.00 87 1005.9
20260509050955 54 245 1.7 5.2 0.00 0.00 0.00 86 1005.9
20260509050719 55 257 0.9 0.9 0.00 0.00 0.00 86 1005.8
20260509050453 54 241 1.7 2.6 0.00 0.00 0.00 86 1006.0
20260509050219 55 271 0.9 0.9 0.00 0.00 0.00 86 1006.1
20260509045955 54 231 1.7 3.5 0.00 0.00 0.00 86 1006.1
20260509045452 54 207 0.0 3.5 0.00 0.00 0.00 86 1006.1
20260509045219 55 209 0.9 0.9 0.00 0.00 0.00 85 1006.1
20260509044954 54 232 1.7 1.7 0.00 0.00 0.00 85 1006.1
20260509044454 55 261 0.9 2.6 0.00 0.00 0.00 85 1006.2
20260509044220 55 262 0.9 0.9 0.00 0.00 0.00 85 1006.1
20260509043956 55 267 0.0 2.6 0.00 0.00 0.00 85 1006.3
20260509043219 55 237 0.0 0.0 0.00 0.00 0.00 84 1006.1
20260509042954 55 226 0.0 3.5 0.00 0.00 0.00 84 1006.3
20260509042720 56 171 0.0 0.0 0.00 0.00 0.00 84 1006.1
20260509042452 55 219 1.7 3.5 0.00 0.00 0.00 83 1006.3
20260509041954 55 265 1.7 3.5 0.00 0.00 0.00 83 1006.4
20260509041719 56 248 0.9 0.9 0.00 0.00 0.00 83 1006.4
20260509041454 56 236 0.0 4.3 0.00 0.00 0.00 83 1006.4
20260509041004 56 249 0.0 4.3 0.00 0.00 0.00 82 1006.4
20260509040719 56 217 0.9 0.9 0.00 0.00 0.00 82 1006.4
20260509040453 56 249 0.9 3.5 0.00 0.00 0.00 82 1006.4
20260509035957 56 204 0.9 6.1 0.00 0.00 0.00 82 1006.3
20260509035454 56 217 0.9 6.1 0.00 0.00 0.00 81 1006.4
20260509035219 57 126 0.9 0.9 0.00 0.00 0.00 81 1006.4
20260509034954 56 245 1.7 4.3 0.00 0.00 0.00 81 1006.4
20260509034453 56 284 0.0 4.3 0.00 0.00 0.00 81 1006.5
20260509034219 57 223 0.9 0.9 0.00 0.00 0.00 81 1006.4
20260509033955 56 227 0.0 3.5 0.00 0.00 0.00 80 1006.6
20260509033454 57 217 0.0 4.3 0.00 0.00 0.00 80 1006.6
20260509033219 57 202 0.9 0.9 0.00 0.00 0.00 80 1006.4
20260509032954 57 211 2.6 4.3 0.00 0.00 0.00 80 1006.6
20260509032454 57 208 0.0 4.3 0.00 0.00 0.00 79 1006.6
20260509032219 57 207 0.9 0.9 0.00 0.00 0.00 79 1006.4
20260509031954 57 197 0.9 6.1 0.00 0.00 0.00 79 1006.7
20260509031454 57 184 2.6 6.1 0.00 0.00 0.00 79 1006.7
20260509031220 57 253 0.0 0.0 0.00 0.00 0.00 79 1006.8
20260509030955 57 198 0.9 3.5 0.00 0.00 0.00 78 1006.8
20260509030453 57 279 2.6 2.6 0.00 0.00 0.00 78 1006.8
20260509030219 58 230 0.0 0.0 0.00 0.00 0.00 78 1006.8
20260509025954 57 250 0.9 3.5 0.00 0.00 0.00 78 1006.8
20260509025453 57 297 0.0 3.5 0.00 0.00 0.00 77 1006.8
20260509025220 58 227 0.9 0.9 0.00 0.00 0.00 77 1006.8
20260509024953 57 263 0.0 4.3 0.00 0.00 0.00 77 1006.8
20260509024720 58 225 0.9 0.9 0.00 0.00 0.00 77 1006.8
20260509024452 57 225 0.0 4.3 0.00 0.00 0.00 77 1006.8
20260509023954 57 229 0.9 2.6 0.00 0.00 0.00 77 1006.8
20260509023719 58 251 0.9 0.9 0.00 0.00 0.00 76 1006.8
20260509023453 58 217 1.7 3.5 0.00 0.00 0.00 76 1006.8
20260509022954 58 245 0.9 2.6 0.00 0.00 0.00 77 1006.8
20260509022720 58 234 0.9 0.9 0.00 0.00 0.00 77 1006.8
20260509022452 58 202 0.0 2.6 0.00 0.00 0.00 76 1006.8
20260509022000 58 209 0.9 3.5 0.00 0.00 0.00 77 1006.7
20260509021719 59 213 0.9 0.9 0.00 0.00 0.00 77 1006.8
20260509021452 58 222 0.9 3.5 0.00 0.00 0.00 77 1006.7
20260509021219 59 214 0.9 0.9 0.00 0.00 0.00 77 1006.8
20260509020954 58 259 0.9 4.3 0.00 0.00 0.00 77 1006.6
20260509020719 59 212 0.9 0.9 0.00 0.00 0.00 77 1006.4
20260509020502 58 244 0.0 4.3 0.00 0.00 0.00 77 1006.5
20260509020219 59 213 0.9 0.9 0.00 0.00 0.00 77 1006.4
20260509015956 58 199 0.0 3.5 0.00 0.00 0.00 77 1006.5
20260509015452 59 203 0.0 3.5 0.00 0.00 0.00 77 1006.5
20260509015219 59 232 0.9 0.9 0.00 0.00 0.00 77 1006.4
20260509014954 59 232 2.6 2.6 0.00 0.00 0.00 77 1006.5
20260509014454 59 253 0.9 3.5 0.00 0.00 0.00 76 1006.4
20260509014220 59 215 0.9 0.9 0.00 0.00 0.00 76 1006.4
20260509013955 59 225 0.9 3.5 0.00 0.00 0.00 76 1006.4
20260509013454 59 218 1.7 5.2 0.00 0.00 0.00 76 1006.5
20260509013219 60 167 1.7 1.7 0.00 0.00 0.00 75 1006.4
20260509012954 59 205 0.9 3.5 0.00 0.00 0.00 75 1006.4
20260509012219 60 202 1.7 1.7 0.00 0.00 0.00 75 1006.4
20260509011453 60 194 1.7 3.5 0.00 0.00 0.00 73 1006.5
20260509010954 60 211 0.9 4.3 0.00 0.00 0.00 73 1006.5
20260509010719 61 215 0.9 0.9 0.00 0.00 0.00 72 1006.4
20260509005219 62 204 0.9 0.9 0.00 0.00 0.00 67 1006.1
20260509004452 62 260 0.0 2.6 0.00 0.00 0.00 66 1006.1
20260509003954 62 265 1.7 2.6 0.00 0.00 0.00 65 1006.2
20260509003219 63 263 0.9 0.9 0.00 0.00 0.00 64 1006.1
20260509002954 63 264 1.7 3.5 0.00 0.00 0.00 64 1006.1
20260509002719 63 278 0.9 0.9 0.00 0.00 0.00 64 1006.1
20260509002453 63 240 1.7 5.2 0.00 0.00 0.00 64 1006.1
20260509002219 64 261 0.9 0.9 0.00 0.00 0.00 63 1006.1
20260509001720 64 230 1.7 1.7 0.00 0.00 0.00 63 1006.1
20260509001453 64 236 0.9 3.5 0.00 0.00 0.00 62 1006.1
20260509000954 64 223 1.7 3.5 0.00 0.00 0.00 62 1006.2
20260509000719 64 250 0.9 0.9 0.00 0.00 0.00 63 1006.1
20260509000455 64 269 0.0 3.5 0.00 0.00 0.00 63 1006.2
20260509000220 64 257 1.7 1.7 0.00 0.00 0.00 63 1006.1
20260508235953 64 258 0.0 4.3 0.00 0.00 0.00 62 1006.2
20260508235453 64 250 0.9 7.0 0.00 0.00 0.00 63 1006.1
20260508235220 64 171 1.7 1.7 0.00 0.00 0.00 63 1006.1
20260508234954 64 271 2.6 7.0 0.00 0.00 0.00 63 1006.2
20260508234220 64 234 1.7 1.7 0.00 0.00 0.00 64 1006.1
20260508233452 64 260 0.9 6.1 0.00 0.00 0.00 64 1006.1
20260508232954 64 284 1.7 6.1 0.00 0.00 0.00 64 1006.2
20260508232452 64 204 1.7 6.1 0.00 0.00 0.00 63 1006.1
20260508231956 64 269 0.9 6.1 0.00 0.00 0.00 63 1006.2
20260508231219 65 285 1.7 1.7 0.00 0.00 0.00 62 1006.1
20260508230956 65 212 0.9 6.1 0.00 0.00 0.00 62 1006.2
20260508230453 65 274 0.0 6.1 0.00 0.00 0.00 62 1006.2
20260508230219 66 255 1.7 1.7 0.00 0.00 0.00 62 1006.1
20260508225954 65 221 0.9 7.8 0.00 0.00 0.00 61 1006.2
20260508225719 66 241 1.7 1.7 0.00 0.00 0.00 61 1006.1
20260508225453 66 240 0.9 7.8 0.00 0.00 0.00 61 1006.3
20260508225220 66 280 1.7 1.7 0.00 0.00 0.00 61 1006.1
20260508224955 66 234 0.9 4.3 0.00 0.00 0.00 61 1006.3
20260508224453 66 261 1.7 4.3 0.00 0.00 0.00 60 1006.3
20260508224219 66 241 0.9 0.9 0.00 0.00 0.00 60 1006.1
20260508223954 66 195 1.7 4.3 0.00 0.00 0.00 60 1006.3
20260508223719 66 206 1.7 1.7 0.00 0.00 0.00 61 1006.4
20260508223452 66 182 0.9 4.3 0.00 0.00 0.00 60 1006.3
20260508223219 66 246 1.7 1.7 0.00 0.00 0.00 60 1006.4
20260508222954 66 192 3.5 6.1 0.00 0.00 0.00 60 1006.3
20260508222453 66 295 3.5 6.1 0.00 0.00 0.00 62 1006.4
20260508222219 66 186 0.9 0.9 0.00 0.00 0.00 64 1006.4
20260508221954 65 232 0.0 2.6 0.00 0.00 0.00 62 1006.4
20260508221719 66 247 0.9 0.9 0.00 0.00 0.00 62 1006.4
20260508221453 65 201 1.7 3.5 0.00 0.00 0.00 61 1006.4
20260508220954 65 215 1.7 5.2 0.00 0.00 0.00 61 1006.4
20260508220719 66 274 0.9 0.9 0.00 0.00 0.00 63 1006.4
20260508220453 65 263 3.5 5.2 0.00 0.00 0.00 62 1006.3
20260508215954 64 281 1.7 2.6 0.00 0.00 0.00 64 1006.4
20260508215719 65 111 0.0 0.0 0.00 0.00 0.00 63 1006.4
20260508215452 64 113 0.9 2.6 0.00 0.00 0.00 62 1006.4
20260508215220 65 119 0.0 0.0 0.00 0.00 0.00 62 1006.4
20260508214952 65 125 0.9 2.6 0.00 0.00 0.00 61 1006.4
20260508214452 65 134 0.0 2.6 0.00 0.00 0.00 61 1006.5
20260508213953 65 154 0.0 2.6 0.00 0.00 0.00 61 1006.5
20260508213452 65 190 0.0 1.7 0.00 0.00 0.00 60 1006.6
20260508213220 65 190 0.0 0.0 0.00 0.00 0.00 60 1006.4
20260508212952 65 191 0.0 1.7 0.00 0.00 0.00 60 1006.5
20260508212452 65 191 0.0 2.6 0.00 0.00 0.00 61 1006.6
20260508212219 65 194 0.0 0.0 0.00 0.00 0.00 62 1006.4
20260508211952 65 190 0.9 2.6 0.00 0.00 0.00 62 1006.6
20260508211453 64 179 0.9 2.6 0.00 0.00 0.00 62 1006.5
20260508211219 65 201 0.0 0.0 0.00 0.00 0.00 62 1006.8
20260508210952 65 166 2.6 2.6 0.00 0.00 0.00 62 1006.6
20260508210720 65 155 0.0 0.0 0.00 0.00 0.00 62 1006.8
20260508210451 65 254 0.9 2.6 0.00 0.00 0.00 62 1006.7
20260508210218 65 254 0.0 0.0 0.00 0.00 0.00 62 1006.8
20260508205953 65 254 0.9 2.6 0.00 0.00 0.00 63 1006.7
20260508205452 65 256 0.9 2.6 0.00 0.00 0.00 62 1006.7
20260508205221 66 319 0.0 0.0 0.00 0.00 0.00 62 1006.8
20260508204954 65 319 0.0 1.7 0.00 0.00 0.00 62 1006.7
20260508204219 66 311 0.0 0.0 0.00 0.00 0.00 61 1007.1
20260508203955 65 291 0.9 3.5 0.00 0.00 0.00 61 1007.0
20260508203453 65 132 0.9 3.5 0.00 0.00 0.00 60 1007.0
20260508203219 66 153 0.0 0.0 0.00 0.00 0.00 60 1007.1
20260508202954 65 202 0.0 3.5 0.00 0.00 0.00 60 1007.1
20260508202719 65 213 0.0 0.0 0.00 0.00 0.00 61 1007.1
20260508202453 65 74 0.0 3.5 0.00 0.00 0.00 60 1007.2
20260508201954 65 184 0.0 1.7 0.00 0.00 0.00 61 1007.3
20260508201452 65 169 1.7 3.5 0.00 0.00 0.00 62 1007.3
20260508201219 65 265 0.0 0.0 0.00 0.00 0.00 62 1007.5
20260508200954 64 265 0.0 3.5 0.00 0.00 0.00 62 1007.4
20260508200719 65 211 0.0 0.0 0.00 0.00 0.00 62 1007.5
20260508200453 64 360 0.0 1.7 0.00 0.00 0.00 62 1007.6
20260508195954 64 84 0.0 3.5 0.00 0.00 0.00 61 1007.7
20260508195719 65 83 0.9 0.9 0.00 0.00 0.00 62 1007.8
20260508195452 65 82 0.9 3.5 0.00 0.00 0.00 60 1007.6
20260508194954 65 17 0.9 3.5 0.00 0.00 0.00 60 1007.7
20260508194452 65 251 0.0 2.6 0.00 0.00 0.00 61 1007.7
20260508194219 65 51 0.9 0.9 0.00 0.00 0.00 61 1007.8
20260508193954 64 49 0.0 3.5 0.00 0.00 0.00 61 1007.7
20260508193719 65 167 0.9 0.9 0.00 0.00 0.00 61 1007.8
20260508192954 64 170 0.0 3.5 0.00 0.00 0.00 62 1007.9
20260508192719 64 139 0.9 0.9 0.00 0.00 0.00 62 1007.8
20260508192453 63 132 1.7 3.5 0.00 0.00 0.00 65 1007.9
20260508191953 63 144 1.7 3.5 0.00 0.00 0.00 64 1007.9
20260508191452 62 155 0.9 4.3 0.00 0.00 0.00 66 1008.0
20260508191218 63 94 0.9 0.9 0.00 0.00 0.00 65 1008.1
20260508190955 62 95 0.9 3.5 0.00 0.00 0.00 67 1008.0
20260508190719 63 97 0.0 0.0 0.00 0.00 0.00 66 1008.1
20260508190452 62 100 1.7 4.3 0.00 0.00 0.00 64 1008.1
20260508185953 62 82 4.3 4.3 0.00 0.00 0.00 64 1008.2
20260508185718 63 79 0.9 0.9 0.00 0.00 0.00 65 1008.1
20260508185452 62 122 0.0 2.6 0.00 0.00 0.00 63 1008.3
20260508185220 63 122 0.9 0.9 0.00 0.00 0.00 64 1008.5
20260508184953 62 122 0.9 2.6 0.00 0.00 0.00 64 1008.4
20260508184452 62 112 1.7 2.6 0.00 0.00 0.00 63 1008.4
20260508184219 63 338 0.9 0.9 0.00 0.00 0.00 64 1008.5
20260508183953 63 260 1.7 3.5 0.00 0.00 0.00 63 1008.5
20260508183718 63 202 0.9 0.9 0.00 0.00 0.00 63 1008.5
20260508183453 63 128 0.0 3.5 0.00 0.00 0.00 63 1008.5
20260508182953 63 144 0.9 3.5 0.00 0.00 0.00 63 1008.6
20260508182718 63 86 0.9 0.9 0.00 0.00 0.00 63 1008.8
20260508182452 63 103 0.0 3.5 0.00 0.00 0.00 63 1008.6
20260508182218 64 164 0.0 0.0 0.00 0.00 0.00 63 1008.8
20260508181953 63 238 0.9 3.5 0.00 0.00 0.00 63 1008.7
20260508181452 63 130 0.9 3.5 0.00 0.00 0.00 62 1008.7
20260508180953 64 124 0.9 5.2 0.00 0.00 0.00 63 1008.8
20260508180718 64 175 0.0 0.0 0.00 0.00 0.00 62 1008.8
20260508180452 64 95 0.9 5.2 0.00 0.00 0.00 62 1008.8
20260508180219 65 96 0.0 0.0 0.00 0.00 0.00 62 1008.8
20260508175952 64 107 2.6 6.1 0.00 0.00 0.00 62 1008.8
20260508175451 64 86 2.6 6.1 0.00 0.00 0.00 62 1008.9
20260508175219 65 196 0.9 0.9 0.00 0.00 0.00 64 1008.8
20260508174954 64 138 1.7 3.5 0.00 0.00 0.00 64 1008.9
20260508174451 64 84 0.9 4.3 0.00 0.00 0.00 63 1009.1
20260508174220 64 232 0.9 0.9 0.00 0.00 0.00 64 1009.1
20260508173953 64 105 0.0 4.3 0.00 0.00 0.00 63 1009.1
20260508173719 64 78 0.9 0.9 0.00 0.00 0.00 64 1009.1
20260508173453 64 129 1.7 3.5 0.00 0.00 0.00 64 1009.3
20260508173219 64 99 0.9 0.9 0.00 0.00 0.00 64 1009.5
20260508172953 64 248 0.9 3.5 0.00 0.00 0.00 63 1009.4
20260508172452 63 211 0.0 3.5 0.00 0.00 0.00 64 1009.5
20260508172219 64 57 0.9 0.9 0.00 0.00 0.00 64 1009.5
20260508171953 63 39 1.7 5.2 0.00 0.00 0.00 63 1009.6
20260508171218 64 120 0.9 0.9 0.00 0.00 0.00 63 1009.8
20260508170952 64 142 1.7 3.5 0.00 0.00 0.00 63 1009.7
20260508170720 65 87 0.9 0.9 0.00 0.00 0.00 63 1009.8
20260508170452 64 219 1.7 5.2 0.00 0.00 0.00 64 1009.8
20260508170219 65 320 0.9 0.9 0.00 0.00 0.00 64 1009.8
20260508165956 64 135 0.9 6.1 0.00 0.00 0.00 63 1009.8
20260508165220 64 220 0.9 0.9 0.00 0.00 0.00 66 1009.8
20260508164955 64 129 1.7 4.3 0.00 0.00 0.00 64 1009.9
20260508164452 64 248 0.0 3.5 0.00 0.00 0.00 64 1010.0
20260508164219 64 244 0.9 0.9 0.00 0.00 0.00 63 1010.2
20260508163953 64 225 1.7 4.3 0.00 0.00 0.00 64 1010.1
20260508163452 64 80 0.9 4.3 0.00 0.00 0.00 64 1010.1
20260508163219 65 292 0.9 0.9 0.00 0.00 0.00 64 1010.2
20260508162453 64 108 0.9 5.2 0.00 0.00 0.00 64 1010.2
20260508162219 64 230 0.9 0.9 0.00 0.00 0.00 65 1010.5
20260508161953 64 158 4.3 4.3 0.00 0.00 0.00 65 1010.3
20260508161720 64 180 0.9 0.9 0.00 0.00 0.00 65 1010.5
20260508161452 64 51 0.9 3.5 0.00 0.00 0.00 64 1010.3
20260508160957 64 247 0.9 3.5 0.00 0.00 0.00 64 1010.3
20260508160720 64 192 0.9 0.9 0.00 0.00 0.00 65 1010.5
20260508160453 64 205 0.9 3.5 0.00 0.00 0.00 64 1010.4
20260508160218 64 221 0.9 0.9 0.00 0.00 0.00 66 1010.5
20260508155954 64 317 0.0 5.2 0.00 0.00 0.00 64 1010.4
20260508155453 64 163 0.0 5.2 0.00 0.00 0.00 64 1010.4
20260508155220 64 269 0.9 0.9 0.00 0.00 0.00 66 1010.5
20260508154954 64 165 0.0 3.5 0.00 0.00 0.00 66 1010.4
20260508154219 64 206 1.7 1.7 0.00 0.00 0.00 67 1010.5
20260508153954 63 204 0.0 3.5 0.00 0.00 0.00 67 1010.6
20260508153453 63 311 1.7 2.6 0.00 0.00 0.00 66 1010.7
20260508153219 64 37 0.9 0.9 0.00 0.00 0.00 67 1010.8
20260508152954 64 188 0.9 3.5 0.00 0.00 0.00 66 1010.7
20260508152452 64 253 0.0 5.2 0.00 0.00 0.00 65 1010.6
20260508151955 64 282 2.6 5.2 0.00 0.00 0.00 68 1010.6
20260508150954 63 215 0.9 4.3 0.00 0.00 0.00 69 1010.5
20260508150453 62 269 1.7 7.0 0.00 0.00 0.00 68 1010.6
20260508150219 63 265 0.9 0.9 0.00 0.00 0.00 69 1010.8
20260508145955 62 271 3.5 7.0 0.00 0.00 0.00 67 1010.6
20260508145452 62 236 1.7 6.1 0.00 0.00 0.00 71 1010.7
20260508145219 62 278 0.9 0.9 0.00 0.00 0.00 70 1010.8
20260508144955 61 191 2.6 5.2 0.00 0.00 0.00 71 1010.7
20260508144719 62 240 0.9 0.9 0.00 0.00 0.00 72 1010.8
20260508143719 61 135 0.9 0.9 0.00 0.00 0.00 74 1010.8
20260508143452 60 182 0.9 6.1 0.00 0.00 0.00 74 1010.8
20260508143220 60 265 0.9 0.9 0.00 0.00 0.00 74 1010.8
20260508142954 60 275 1.7 2.6 0.00 0.00 0.00 75 1010.8
20260508142452 60 195 0.9 2.6 0.00 0.00 0.00 76 1010.7
20260508142219 60 203 0.0 0.0 0.00 0.00 0.00 76 1010.8
20260508141953 59 200 0.9 2.6 0.00 0.00 0.00 77 1010.8
20260508141452 59 215 1.7 2.6 0.00 0.00 0.00 79 1010.9
20260508141219 59 224 0.0 0.0 0.00 0.00 0.00 80 1010.8
20260508140953 58 128 1.7 2.6 0.00 0.00 0.00 81 1010.8
20260508140452 57 251 1.7 2.6 0.00 0.00 0.00 82 1010.8
20260508140219 57 273 0.0 0.0 0.00 0.00 0.00 83 1010.8
20260508135956 57 269 1.7 4.3 0.00 0.00 0.00 84 1010.8
20260508135453 56 212 0.0 2.6 0.00 0.00 0.00 85 1010.9
20260508134955 55 181 0.9 2.6 0.00 0.00 0.00 86 1010.9
20260508134719 55 244 0.0 0.0 0.00 0.00 0.00 87 1010.8
20260508133953 54 165 0.0 2.6 0.00 0.00 0.00 88 1011.0
20260508133218 54 202 0.0 0.0 0.00 0.00 0.00 89 1011.2
20260508132953 53 202 0.9 2.6 0.00 0.00 0.00 89 1011.0
20260508132454 52 213 1.7 2.6 0.00 0.00 0.00 89 1011.1
20260508131955 52 236 0.0 3.5 0.00 0.00 0.00 89 1011.0
20260508131452 52 254 0.0 3.5 0.00 0.00 0.00 90 1011.1
20260508130954 51 245 0.0 2.6 0.00 0.00 0.00 90 1011.0
20260508130452 51 250 0.0 2.6 0.00 0.00 0.00 90 1011.0
20260508125954 50 339 0.0 2.6 0.00 0.00 0.00 90 1010.9
20260508125451 50 275 0.0 2.6 0.00 0.00 0.00 90 1010.9
20260508124953 49 254 0.0 2.6 0.00 0.00 0.00 90 1010.9
20260508124719 50 252 0.0 0.0 0.00 0.00 0.00 90 1011.2
20260508124453 49 240 0.0 1.7 0.00 0.00 0.00 90 1011.0
20260508123953 49 237 0.0 1.7 0.00 0.00 0.00 90 1011.1
20260508123719 49 207 0.0 0.0 0.00 0.00 0.00 90 1011.5
20260508122952 48 250 0.0 0.0 0.00 0.00 0.00 90 1011.2
20260508122451 48 252 0.0 0.0 0.00 0.00 0.00 90 1011.3
20260508122218 49 252 0.0 0.0 0.00 0.00 0.00 90 1011.5
20260508121952 48 252 0.0 0.0 0.00 0.00 0.00 89 1011.2
20260508121219 49 252 0.0 0.0 0.00 0.00 0.00 89 1011.5
20260508120952 48 252 0.0 0.0 0.00 0.00 0.00 89 1011.2
20260508120719 48 252 0.0 0.0 0.00 0.00 0.00 89 1011.2
20260508120452 48 252 0.0 0.0 0.00 0.00 0.00 89 1010.9
20260508115952 48 252 0.0 0.0 0.00 0.00 0.00 90 1010.8
20260508115450 48 254 0.0 0.0 0.00 0.00 0.00 90 1010.8
20260508114951 47 265 0.0 0.0 0.00 0.00 0.00 90 1011.0
20260508114718 48 265 0.0 0.0 0.00 0.00 0.00 90 1011.2
20260508114450 47 265 0.0 0.0 0.00 0.00 0.00 90 1011.1
20260508113951 47 265 0.0 0.0 0.00 0.00 0.00 90 1011.1
20260508113719 47 265 0.0 0.0 0.00 0.00 0.00 89 1011.2
20260508113450 47 265 0.0 0.0 0.00 0.00 0.00 89 1010.9
20260508112951 47 265 0.0 0.0 0.00 0.00 0.00 89 1010.5